Temperature
19 20 21 22 21 21 21 19 20 20 19 20 19 19 20 20 21 21 21 21 22 22 22 22 22 22 22 21 21 20 20 19 19 19 19 18 18 17 17 17 17 17 17 17
20 20 21 21 21 21 21 20 20 20 20 19 19 20 20 20 20 20 21 22 22 22 22 22 22 22 22 21 21 20 20 19 19 19 18 18 18 17 17 17 17 17 16 16
18 19 21 21 20 21 21 20 20 20 19 17 17 18 19 20 20 21 21 22 22 22 22 22 22 22 21 21 21 20 20 19 19 19 18 18 18 17 17 17 17 17 16 16
16 19 20 19 19 20 19 18 18 18 17 17 17 18 20 21 21 21 21 22 22 22 22 22 22 22 21 21 20 20 20 19 19 19 18 18 18 17 17 17 17 16 16 16
14 17 18 19 19 18 18 18 17 16 16 16 17 18 20 21 21 21 21 22 22 22 22 22 22 21 21 20 20 20 19 19 19 19 18 18 18 17 17 17 16 16 16 15
14 17 18 18 18 18 18 18 17 16 15 16 16 17 18 20 20 21 21 21 22 22 22 22 21 21 20 20 20 19 19 19 18 18 18 18 17 17 17 16 16 15 15 15
14 16 16 17 17 18 19 18 17 16 16 16 16 17 18 19 20 20 21 21 21 21 21 21 21 20 20 19 19 19 19 18 18 18 17 17 17 16 16 16 15 15 15 14
13 15 16 17 16 16 16 17 17 16 16 16 17 17 18 19 19 19 20 20 20 21 20 20 20 20 20 19 19 19 18 18 18 17 17 17 16 16 16 15 15 14 14 14
13 14 14 15 15 16 16 16 16 16 16 17 17 17 18 18 18 19 19 19 19 20 20 20 19 19 19 19 18 18 18 17 17 17 16 16 16 16 15 15 15 14 14 14
12 13 14 15 16 16 16 16 17 17 16 17 16 17 17 17 18 18 18 18 18 19 19 18 19 19 18 18 18 18 17 17 17 16 16 16 15 15 15 15 14 14 14 13
12 13 14 15 15 16 16 16 16 16 16 16 16 16 17 16 17 17 17 17 18 18 18 18 18 18 18 17 17 17 17 16 16 16 15 15 15 14 14 14 14 14 13 13
12 13 12 14 15 15 15 16 16 16 16 16 16 16 16 16 16 17 17 17 17 17 17 16 16 17 17 17 17 16 16 16 15 15 15 15 14 14 14 13 13 13 13 13
14 14 14 14 14 15 15 15 15 15 15 16 16 16 16 16 16 16 16 16 16 16 16 16 16 16 16 16 16 15 15 15 15 14 14 14 14 14 13 13 13 12 12 12
14 14 13 14 14 14 15 14 14 15 15 15 15 15 15 15 15 15 15 15 15 15 15 15 15 15 15 15 15 15 15 14 14 14 14 14 13 13 13 13 12 12 12 12
14 13 13 14 14 14 14 14 14 14 14 14 14 14 15 15 15 15 14 15 15 15 15 15 14 14 14 14 14 14 14 14 14 13 13 13 13 13 12 12 12 12 12 11
13 13 13 13 13 13 13 13 13 13 13 14 14 14 14 14 14 14 14 14 14 14 14 14 14 14 14 14 14 14 14 13 13 13 13 13 12 12 12 12 11 11 11 11
12 12 12 12 13 12 12 12 13 13 13 13 13 13 13 13 13 13 13 13 13 13 13 13 13 13 13 13 13 13 13 13 13 12 12 12 12 12 12 11 11 11 11 11
12 12 12 12 12 12 12 12 12 12 12 13 13 12 12 12 13 13 13 13 13 13 13 13 13 13 13 13 13 13 12 12 12 12 12 12 11 11 11 11 11 11 10 10
12 12 12 12 12 12 11 11 12 12 12 12 12 12 12 12 12 12 12 12 12 12 12 12 12 12 12 12 12 12 12 12 12 12 11 11 11 11 11 10 10 10 10 10
11 11 11 11 11 11 11 11 11 11 11 12 12 12 12 12 12 12 12 12 12 12 12 12 12 12 12 12 12 12 12 11 11 11 11 11 11 10 10 10 10 10 9 9
11 11 11 11 11 11 11 11 11 11 11 11 11 11 11 11 11 11 11 11 11 11 11 11 11 11 11 11 11 11 11 11 11 11 10 10 10 10 10 9 9 9 9 9
11 11 11 11 11 11 11 11 11 11 11 11 11 11 11 11 11 11 11 11 11 11 11 11 11 11 11 11 11 11 11 10 10 10 10 10 10 9 9 9 9 9 8 8
10 10 10 10 10 10 10 10 10 10 10 10 10 11 11 11 11 11 10 10 10 10 10 10 10 10 10 10 10 10 10 10 10 10 9 9 9 9 9 8 8 8 8 8
10 10 10 10 10 10 10 10 10 10 10 10 10 10 10 10 10 10 10 10 10 10 10 10 10 10 10 10 10 10 9 9 9 9 9 9 9 8 8 8 8 8 8 7
9 9 10 10 10 10 10 9 9 9 9 9 9 9 10 10 10 9 9 9 9 9 9 9 9 9 9 9 9 9 9 9 9 9 8 8 8 8 8 8 8 7 7 7
9 9 9 9 9 9 9 9 9 9 9 9 9 9 9 9 9 9 9 9 9 9 9 9 9 9 9 9 9 9 8 8 8 8 8 8 8 7 7 7 7 7 7 7
9 9 9 9 9 9 9 9 9 9 9 9 9 9 8 8 8 8 8 8 8 8 8 8 8 8 8 8 8 8 8 8 8 8 8 7 7 7 7 7 7 7 6 6
Wind_Speed
3 3 2 2 3 5 5 8 8 8 7 7 6 6 5 3 3 3 3 4 5 6 5 5 6 6 6 6 6 6 6 6 6 5 5 5 5 4 4 3 3 3 3 2
1 2 0 1 2 3 3 4 4 3 5 5 5 2 2 3 4 4 5 5 5 5 5 6 6 6 5 6 6 7 7 6 5 6 6 5 5 5 4 4 3 3 3 2
2 4 2 2 3 2 1 1 4 4 5 3 2 4 5 5 5 6 6 5 6 6 6 6 6 6 6 6 6 8 8 7 6 6 6 5 5 5 4 4 3 3 2 2
2 2 4 6 2 1 2 1 0 1 2 2 4 6 5 4 4 4 4 5 6 6 5 4 4 5 5 6 7 7 7 7 7 7 6 6 6 5 4 3 3 3 2 2
4 3 3 4 1 1 1 1 1 1 3 4 4 3 3 1 2 5 5 6 6 6 5 5 5 4 5 6 7 7 7 7 7 8 7 6 6 5 4 4 3 2 2 2
5 4 6 6 3 2 3 2 2 1 3 4 3 2 5 5 4 4 3 4 4 4 5 6 5 5 5 5 6 7 7 7 7 7 8 7 6 5 4 4 3 3 2 1
4 4 6 5 5 2 4 5 4 3 3 3 2 5 5 5 5 4 3 2 3 5 5 6 6 7 6 5 6 6 6 6 6 6 7 6 5 4 5 4 4 3 2 1
4 4 6 3 2 2 5 3 3 3 3 3 3 4 4 3 3 3 2 1 1 4 4 4 6 7 7 7 6 5 6 6 6 6 6 6 6 5 5 5 5 3 2 1
6 6 4 3 3 4 3 3 3 2 3 2 3 3 3 2 3 2 1 0 1 3 4 4 6 8 8 7 6 6 7 7 6 6 5 5 6 6 5 5 4 3 3 2
2 4 4 5 4 3 2 3 3 3 3 2 3 3 3 3 2 2 2 1 1 2 3 3 4 5 5 6 8 8 7 7 6 6 5 4 3 4 5 4 4 4 4 3
3 5 5 5 4 3 2 1 1 2 2 2 2 2 2 2 2 2 1 1 0 2 2 2 2 3 3 5 7 7 7 6 5 5 6 5 4 3 4 4 5 5 5 4
6 6 4 6 6 4 2 2 2 1 3 3 2 2 1 2 2 1 1 1 1 1 2 1 1 2 3 4 6 7 6 5 5 4 4 4 4 3 3 2 2 3 4 4
6 4 5 5 5 4 2 3 3 2 2 3 2 1 0 1 1 1 1 1 1 2 2 2 2 2 2 3 5 6 6 5 5 5 5 5 5 4 3 2 3 3 3 4
5 2 3 3 4 4 2 2 2 2 2 2 2 1 0 1 1 2 1 1 3 3 4 3 3 2 1 3 4 5 5 6 5 4 4 4 4 4 4 4 2 0 0 2
4 3 4 4 3 3 2 1 2 4 3 2 1 0 0 1 1 1 1 3 4 5 5 4 4 3 2 3 4 4 4 3 4 4 4 4 4 4 3 4 3 2 1 1
3 2 1 1 3 3 2 1 2 4 4 2 1 1 0 1 2 2 2 2 4 4 3 3 3 1 2 3 4 3 3 4 4 4 4 3 3 3 3 3 3 2 2 2
2 2 2 3 4 3 2 2 2 3 4 3 2 1 1 2 3 3 3 2 3 4 3 3 1 1 2 3 3 3 3 4 5 4 3 3 3 3 3 3 3 2 2 2
3 3 4 3 3 2 2 2 3 3 3 2 0 0 1 2 2 2 2 3 4 4 3 1 1 2 2 2 3 3 3 3 3 3 3 3 2 2 2 3 3 2 1 1
1 2 2 1 2 2 2 3 3 3 2 1 0 2 2 1 1 2 2 3 3 1 2 1 2 2 1 1 3 3 3 3 3 2 2 3 2 2 2 2 2 2 2 1
2 1 1 2 2 2 3 2 2 2 1 1 1 1 1 1 2 2 2 1 0 1 1 1 2 1 1 2 3 3 3 3 3 2 2 2 2 2 2 2 2 2 2 2
2 2 2 2 2 2 1 1 1 1 1 1 1 1 1 1 1 2 2 1 2 1 1 2 2 1 1 2 3 3 3 3 3 2 2 2 2 2 2 2 2 2 2 1
3 3 3 2 2 2 2 1 1 1 1 1 1 1 1 1 1 2 1 1 0 2 2 2 2 2 3 3 3 3 3 3 2 2 2 2 3 2 2 2 2 2 2 1
2 3 3 3 2 2 3 3 2 2 2 1 1 0 1 1 1 2 1 0 2 3 2 2 3 5 5 4 3 3 3 3 2 2 2 2 2 2 2 2 2 2 2 1
2 3 3 3 2 3 4 4 4 3 2 2 2 1 1 2 2 1 2 3 3 4 3 4 5 6 5 3 3 3 3 3 3 3 3 2 2 2 2 2 2 2 2 2
1 2 2 3 3 2 2 3 4 5 4 4 4 5 3 2 2 2 3 4 5 6 4 5 7 6 5 4 4 3 3 3 3 3 2 2 2 2 2 2 2 2 2 2
2 2 2 2 2 2 2 3 3 3 3 4 4 4 4 4 5 4 4 5 6 6 5 4 4 4 4 4 4 4 3 3 3 3 2 2 2 2 2 2 2 2 2 2
4 3 3 4 4 3 3 4 4 4 3 4 4 4 4 5 5 5 5 5 5 5 4 3 3 3 4 4 4 4 3 3 3 3 3 2 2 2 1 2 1 1 1 1
Wind_Direction
219 238 199 196 200 181 178 179 181 218 221 253 259 247 245 229 186 168 167 166 177 178 175 177 184 180 176 177 168 166 167 174 180 172 160 152 154 156 154 150 149 140 127 118
6 350 219 229 264 205 196 175 194 209 248 263 279 268 244 219 190 193 199 195 196 187 182 185 187 180 174 175 172 162 167 174 168 158 154 157 158 156 148 142 134 127 127 127
240 309 40 261 252 203 188 196 175 201 238 291 313 291 256 232 208 208 209 200 193 198 200 199 190 179 177 176 166 164 166 165 161 160 161 163 161 156 156 154 147 139 138 140
138 85 214 240 275 192 143 110 262 233 269 257 265 272 258 219 203 220 223 213 204 202 201 198 186 172 164 160 163 165 165 164 164 162 165 163 159 162 163 156 156 159 162 167
128 165 266 293 339 81 155 264 7 339 318 321 325 347 327 282 233 232 233 223 213 198 189 185 176 165 155 158 159 162 170 173 172 170 167 165 170 174 167 159 162 171 170 170
132 159 219 243 285 288 152 253 327 331 304 316 9 12 287 305 303 291 271 226 200 178 163 166 169 155 153 161 164 174 177 177 172 168 167 173 176 173 159 154 162 158 145 142
155 194 249 268 302 21 151 244 285 269 272 274 246 233 265 304 309 300 295 262 178 161 168 176 164 158 165 173 189 184 164 160 163 165 166 167 164 156 149 148 144 141 142 128
147 179 241 307 25 158 227 262 255 262 264 270 278 290 295 306 317 321 328 333 147 152 170 167 159 164 176 193 195 166 154 156 163 164 162 157 155 150 146 149 149 154 157 145
190 212 250 285 254 263 237 247 264 257 283 297 309 304 312 324 332 337 334 334 166 156 165 166 170 173 184 198 174 161 156 158 160 152 149 150 155 154 151 155 161 171 177 187
258 274 284 297 297 294 257 242 264 264 281 301 288 291 309 321 335 349 343 317 177 155 165 180 183 182 189 174 163 158 160 158 157 150 141 138 145 154 159 170 175 180 189 198
252 279 317 318 313 305 318 341 342 325 308 284 265 277 281 306 317 332 336 352 97 167 172 200 185 159 157 156 153 153 154 149 149 150 148 147 145 154 172 188 190 184 194 193
230 235 223 266 285 299 305 301 296 329 329 307 255 241 272 315 308 320 27 39 89 108 118 140 157 146 151 152 150 148 148 147 151 155 155 151 144 118 68 118 150 177 178 171
234 243 234 259 289 296 289 295 294 286 264 288 306 272 211 314 316 6 93 113 122 112 112 123 120 130 146 143 140 147 156 157 156 165 167 162 159 159 150 72 78 117 157 170
237 243 275 278 279 294 307 315 310 311 303 289 295 302 194 83 59 60 82 128 118 107 96 90 87 64 70 119 131 142 152 156 157 166 170 165 166 167 165 161 164 209 231 196
270 238 238 261 286 299 310 346 349 329 321 323 316 253 178 170 133 93 75 109 108 101 97 89 76 45 50 99 125 137 141 147 149 152 156 162 165 164 163 166 176 185 181 196
285 314 281 278 289 306 317 314 314 304 301 293 266 231 223 141 102 104 88 94 107 104 98 93 83 45 76 102 111 119 131 141 150 152 152 159 165 164 167 175 184 196 205 204
238 271 281 288 284 287 276 269 268 277 284 281 260 221 122 95 84 79 64 63 89 96 88 82 75 57 73 94 114 133 138 141 140 141 155 169 178 180 179 185 194 203 220 208
230 240 242 247 262 282 294 294 293 300 291 276 280 152 146 135 130 114 90 78 74 62 45 36 64 76 79 107 127 137 138 136 144 157 164 170 177 180 177 185 193 190 191 158
306 282 271 264 266 270 283 287 284 281 284 309 219 196 183 154 142 140 120 108 98 63 331 353 69 72 73 115 122 127 131 135 139 145 151 154 160 170 180 186 185 169 157 142
327 328 322 313 310 293 292 290 280 281 274 170 134 111 103 144 144 134 117 97 148 213 208 75 75 82 94 102 105 117 127 135 137 138 139 152 160 164 160 157 151 143 139 145
337 335 336 327 315 303 303 304 302 301 325 51 119 144 219 254 135 121 111 57 340 21 86 91 90 97 97 103 101 111 123 129 133 134 140 140 138 135 131 132 134 142 149 152
349 344 346 351 4 355 344 347 347 4 36 40 48 89 145 159 107 90 87 152 106 75 75 78 90 99 102 101 100 108 116 122 123 125 131 136 139 141 145 150 148 151 156 156
352 353 355 355 356 358 8 16 20 43 49 20 350 282 197 189 169 144 131 83 108 96 84 74 86 88 88 87 97 105 110 111 112 117 124 133 143 154 161 161 157 157 154 142
5 4 358 359 30 44 27 11 20 30 37 27 16 22 83 99 74 68 117 99 89 95 87 86 86 83 83 87 96 101 102 101 101 103 108 114 124 136 146 151 154 157 155 152
10 22 25 32 41 36 31 33 44 48 51 50 41 37 42 70 103 96 92 95 94 91 85 78 74 76 80 87 92 95 97 101 107 111 117 125 134 142 147 150 154 157 159 159
26 36 43 45 46 45 50 65 67 57 58 58 47 41 46 54 73 83 86 88 87 85 82 74 69 72 78 83 89 90 92 97 99 99 107 116 125 128 128 129 143 154 153 146
40 47 53 51 43 44 58 70 74 62 57 67 61 46 52 61 68 73 76 78 78 76 71 65 66 73 78 79 81 81 81 84 88 94 100 104 109 115 127 136 144 150 150 146
Height
1504 1501 1500 1500 1501 1503 1505 1511 1517 1513 1511 1502 1496 1495 1493 1493 1494 1495 1496 1497 1499 1501 1503 1506 1508 1511 1513 1515 1518 1520 1522 1524 1525 1527 1529 1531 1532 1533 1533 1534 1535 1535 1536 1536
1504 1501 1500 1501 1499 1499 1500 1502 1505 1504 1505 1496 1494 1493 1492 1493 1493 1494 1495 1497 1498 1500 1502 1504 1506 1508 1511 1513 1515 1518 1520 1522 1524 1526 1527 1529 1530 1531 1532 1532 1533 1533 1533 1533
1513 1506 1501 1508 1500 1499 1499 1498 1500 1504 1501 1495 1494 1491 1490 1490 1491 1492 1493 1495 1497 1499 1500 1502 1504 1506 1508 1511 1514 1516 1518 1520 1522 1524 1525 1527 1528 1529 1530 1530 1530 1531 1531 1531
1517 1510 1517 1506 1495 1495 1497 1498 1497 1496 1495 1494 1492 1489 1487 1488 1489 1490 1491 1493 1495 1497 1499 1501 1502 1505 1507 1510 1512 1514 1516 1517 1520 1521 1523 1524 1525 1526 1527 1528 1528 1528 1528 1528
1522 1520 1513 1502 1495 1496 1498 1500 1496 1496 1494 1492 1490 1488 1487 1487 1488 1488 1489 1490 1492 1494 1497 1499 1501 1503 1505 1507 1509 1511 1513 1514 1516 1518 1519 1521 1522 1523 1524 1525 1525 1526 1526 1525
1519 1518 1520 1504 1493 1492 1496 1501 1495 1494 1493 1492 1491 1493 1489 1486 1486 1485 1486 1487 1489 1491 1493 1496 1498 1501 1503 1505 1506 1508 1509 1512 1514 1514 1515 1517 1518 1519 1521 1522 1523 1524 1524 1523
1516 1515 1509 1497 1492 1491 1504 1501 1493 1493 1492 1492 1491 1491 1488 1485 1484 1484 1484 1485 1486 1488 1490 1493 1495 1498 1500 1502 1503 1505 1507 1510 1511 1512 1513 1514 1516 1517 1518 1519 1520 1521 1521 1521
1516 1516 1512 1494 1493 1497 1497 1491 1490 1490 1490 1490 1489 1487 1485 1483 1483 1482 1482 1483 1484 1485 1488 1490 1492 1495 1496 1498 1500 1503 1504 1506 1508 1509 1510 1511 1513 1514 1515 1517 1518 1519 1519 1519
1507 1506 1497 1494 1494 1492 1491 1490 1489 1488 1488 1488 1487 1485 1484 1482 1481 1481 1481 1481 1483 1484 1486 1487 1489 1491 1492 1494 1497 1499 1500 1502 1505 1506 1507 1509 1510 1512 1513 1514 1515 1516 1517 1517
1502 1496 1494 1492 1491 1490 1489 1488 1487 1487 1487 1486 1486 1485 1483 1482 1481 1480 1480 1480 1481 1482 1483 1485 1486 1488 1491 1491 1494 1496 1497 1499 1502 1503 1505 1506 1508 1509 1510 1511 1512 1513 1514 1514
1499 1495 1493 1490 1489 1488 1488 1487 1486 1486 1485 1485 1484 1483 1483 1481 1480 1479 1479 1479 1480 1481 1482 1484 1485 1486 1488 1489 1491 1493 1494 1496 1499 1501 1502 1504 1505 1507 1508 1509 1510 1511 1511 1512
1497 1493 1492 1490 1489 1487 1486 1485 1484 1484 1483 1483 1483 1482 1481 1480 1479 1478 1478 1478 1479 1478 1479 1482 1484 1484 1485 1487 1489 1491 1492 1494 1497 1499 1500 1502 1503 1505 1506 1507 1508 1508 1509 1509
1490 1489 1489 1488 1487 1486 1485 1484 1484 1483 1482 1482 1481 1480 1480 1480 1479 1477 1476 1477 1477 1477 1478 1480 1481 1483 1484 1485 1487 1489 1491 1493 1495 1498 1499 1500 1501 1502 1503 1505 1505 1506 1507 1507
1487 1487 1486 1486 1485 1484 1483 1483 1482 1481 1480 1480 1479 1479 1478 1478 1477 1476 1476 1475 1475 1476 1477 1479 1480 1481 1482 1484 1486 1488 1490 1492 1494 1497 1498 1498 1499 1500 1501 1502 1502 1503 1504 1505
1485 1485 1484 1484 1483 1482 1481 1481 1480 1479 1479 1478 1478 1477 1477 1476 1475 1475 1475 1474 1474 1474 1476 1478 1479 1480 1482 1484 1486 1487 1489 1491 1493 1495 1496 1497 1498 1498 1499 1499 1500 1500 1501 1502
1482 1482 1481 1481 1480 1479 1479 1478 1478 1477 1477 1476 1475 1475 1475 1475 1474 1473 1474 1474 1474 1474 1476 1477 1479 1480 1482 1483 1485 1486 1488 1490 1492 1493 1494 1495 1496 1496 1496 1497 1497 1497 1498 1499
1479 1478 1478 1478 1477 1477 1477 1477 1476 1475 1475 1474 1474 1474 1473 1473 1473 1473 1473 1474 1473 1473 1475 1477 1478 1480 1481 1482 1484 1486 1487 1487 1489 1491 1492 1493 1493 1493 1493 1494 1495 1495 1496 1496
1476 1476 1476 1476 1475 1474 1475 1475 1474 1473 1472 1471 1472 1472 1471 1471 1471 1471 1472 1473 1474 1474 1476 1477 1479 1479 1481 1482 1483 1484 1486 1486 1488 1489 1489 1490 1490 1491 1491 1492 1492 1492 1493 1494
1474 1474 1474 1475 1474 1474 1473 1472 1472 1471 1470 1470 1471 1471 1471 1470 1471 1472 1472 1473 1473 1474 1476 1477 1478 1479 1480 1481 1482 1483 1484 1485 1486 1487 1488 1488 1488 1489 1489 1489 1490 1490 1491 1491
1473 1473 1473 1472 1472 1471 1470 1470 1470 1469 1469 1469 1469 1470 1470 1470 1471 1471 1472 1472 1472 1474 1475 1476 1477 1478 1479 1480 1481 1482 1483 1484 1485 1486 1486 1486 1487 1487 1487 1487 1488 1488 1489 1489
1472 1471 1470 1469 1469 1469 1469 1469 1468 1468 1468 1468 1468 1468 1469 1470 1470 1470 1471 1471 1472 1473 1474 1475 1476 1477 1478 1479 1480 1480 1481 1482 1483 1484 1485 1485 1485 1485 1486 1486 1486 1487 1488 1488
1471 1470 1469 1469 1468 1468 1468 1468 1468 1467 1467 1468 1467 1467 1468 1468 1469 1470 1470 1471 1472 1473 1474 1475 1476 1477 1478 1478 1479 1480 1481 1482 1482 1483 1483 1483 1484 1484 1485 1485 1486 1487 1487 1487
1471 1470 1469 1469 1469 1468 1468 1468 1467 1467 1467 1467 1467 1467 1467 1467 1468 1469 1470 1471 1472 1474 1475 1475 1476 1476 1477 1478 1479 1480 1481 1481 1481 1481 1482 1482 1483 1483 1484 1485 1485 1485 1485 1485
1471 1471 1470 1470 1469 1469 1468 1468 1468 1468 1467 1467 1467 1467 1466 1467 1468 1469 1470 1471 1473 1474 1475 1475 1476 1477 1478 1478 1479 1480 1480 1481 1481 1481 1481 1482 1482 1483 1483 1483 1483 1483 1483 1483
1472 1472 1471 1470 1470 1470 1469 1469 1469 1469 1468 1468 1468 1468 1468 1469 1469 1470 1471 1472 1473 1474 1475 1476 1477 1478 1479 1479 1480 1480 1481 1481 1481 1481 1481 1481 1482 1482 1482 1482 1482 1482 1482 1482
1473 1473 1472 1472 1472 1471 1471 1471 1471 1471 1470 1470 1470 1470 1470 1471 1471 1471 1472 1473 1474 1475 1476 1477 1478 1479 1480 1480 1481 1481 1481 1481 1481 1481 1481 1481 1481 1481 1481 1481 1481 1481 1481 1481
1475 1474 1474 1474 1474 1474 1473 1473 1473 1473 1473 1473 1473 1473 1473 1473 1473 1474 1475 1476 1476 1477 1478 1479 1480 1481 1481 1481 1482 1482 1482 1482 1482 1481 1481 1481 1481 1481 1480 1480 1480 1480 1480 1480